This demonstration page uses our WeatherBlox Daily Observations layout. Learn more.

Left ArrowRight Arrow

41.55636, -103.73856

Hourly Observations for May 18, 2020

Temp ( °F °C ) Dew Point ( °F °C ) Humidity (%) Winds ( mph kmh ) Pressure ( in mb ) Visibility ( mi km ) Precip ( " mm )
12:58 am 00:58 Clear 65 18.2 44 6.8 48 48 SE 9 15 29.98 1015 10 16 N/A
1:58 am 01:58 Partly Cloudy 61 15.9 46 7.7 58 58 SE 8 13 29.99 1016 10 16 N/A
2:58 am 02:58 Mostly Cloudy 58 14.5 45 7 61 61 SE 13 20 30.00 1016 10 16 N/A
3:58 am 03:58 Mostly Cloudy 57 13.8 43 6.1 60 60 SE 15 24 30.01 1016 10 16 N/A
4:58 am 04:58 Mostly Clear 54 12.4 43 6.1 66 66 SE 15 24 30.00 1016 10 16 N/A
5:58 am 05:58 Clear 51 10.8 42 5.7 71 71 SE 13 20 30.01 1016 10 16 N/A
6:58 am 06:58 Clear 50 9.8 42 5.4 74 74 SE 14 22 30.01 1016 10 16 N/A
7:58 am 07:58 Clear 48 8.7 42 5.5 81 81 SE 16 26 29.99 1016 10 16 N/A
8:58 am 08:58 Clear 47 8.3 42 5.4 82 82 SE 16 26 29.97 1015 10 16 N/A
9:58 am 09:58 Clear 45 7.4 41 5.2 86 86 SE 6 9 29.97 1015 10 16 N/A
10:58 am 10:58 Partly Cloudy 44 6.7 42 5.3 91 91 SE 6 9 29.96 1015 10 16 N/A
11:58 am 11:58 Mostly Cloudy 46 7.7 43 6 89 89 S 16 26 29.96 1015 10 16 N/A
12:58 pm 12:58 Mostly Cloudy 48 8.7 44 6.5 86 86 S 15 24 29.95 1014 10 16 N/A
1:58 pm 13:58 Mostly Sunny 51 10.5 44 6.7 78 78 S 18 30 29.97 1015 10 16 N/A
2:58 pm 14:58 Sunny 57 13.7 47 8.1 69 69 S 13 20 29.95 1014 10 16 N/A
3:58 pm 15:58 Sunny 62 16.4 47 8.5 60 60 SSW 17 28 29.92 1013 10 16 N/A
4:58 pm 16:58 Sunny 64 17.9 49 9.5 58 58 S 15 24 29.91 1013 10 16 N/A
5:58 pm 17:58 Sunny 67 19.5 50 9.8 54 54 SSE 18 30 29.90 1013 10 16 N/A
6:58 pm 18:58 Sunny 71 21.8 50 10 47 47 SSE 15 24 29.87 1012 10 16 N/A
7:58 pm 19:58 Sunny 76 24.4 50 9.9 40 40 S 18 30 29.85 1011 10 16 N/A
8:58 pm 20:58 Sunny 77 24.9 50 10.2 40 40 SSE 17 28 29.83 1010 10 16 N/A
9:58 pm 21:58 Sunny 78 25.7 49 9.6 36 36 SSE 18 30 29.82 1010 10 16 N/A
10:58 pm 22:58 Sunny 78 25.8 51 10.3 38 38 SSE 20 31 29.81 1010 10 16 N/A
11:58 pm 23:58 Sunny 76 24.4 51 10.3 41 41 SSE 20 31 29.80 1009 10 16 N/A

Powered by AerisWeather